CSN8853 ZPPP-ZSOF

Flight info

Callsign CSN8853
Flight time N/A
Altitude 33100
Route NODIB W137 LPS A581 WHA R343 MIDOX
Aircraft A321/M-SDE3FGHIRWY/LB1

Departure

Time 2026-04-29 09:59
Airport Kunming Changshui International Airport (ZPPP)

Arrival

Time N/A
Airport Hefei Xinqiao International Airport (ZSOF)
Time Latitude Longitude Altitude Speed Heading
2026-04-29 09:32 25.10664 102.92991 6902 ft 0 kts 253°
2026-04-29 09:49 25.10671 102.93014 6902 ft 4 kts 253°
2026-04-29 09:49 25.10679 102.93042 6902 ft 4 kts 253°
2026-04-29 09:50 25.10685 102.93066 6902 ft 4 kts 268°
2026-04-29 09:50 25.10679 102.93091 6901 ft 4 kts 319°
2026-04-29 09:50 25.10657 102.93104 6901 ft 4 kts 345°
2026-04-29 09:50 25.10635 102.93110 6901 ft 0 kts 345°
2026-04-29 09:52 25.10639 102.93109 6901 ft 2 kts 345°
2026-04-29 09:52 25.10662 102.93102 6901 ft 6 kts 344°
2026-04-29 09:52 25.10728 102.93080 6901 ft 13 kts 343°
2026-04-29 09:52 25.10831 102.93032 6902 ft 19 kts 315°
2026-04-29 09:53 25.10920 102.92908 6917 ft 21 kts 309°
2026-04-29 09:53 25.11010 102.92788 6911 ft 15 kts 323°
2026-04-29 09:53 25.11107 102.92829 6912 ft 17 kts 38°
2026-04-29 09:53 25.11204 102.92914 6903 ft 19 kts 38°
2026-04-29 09:54 25.11314 102.93009 6903 ft 21 kts 39°
2026-04-29 09:54 25.11433 102.93113 6903 ft 23 kts 38°
2026-04-29 09:54 25.11561 102.93225 6902 ft 24 kts 38°
2026-04-29 09:54 25.11699 102.93345 6901 ft 26 kts 38°
2026-04-29 09:55 25.11838 102.93465 6901 ft 26 kts 38°
2026-04-29 09:55 25.11981 102.93591 6900 ft 23 kts 38°
2026-04-29 09:55 25.12111 102.93704 6900 ft 24 kts 38°
2026-04-29 09:55 25.12248 102.93822 6899 ft 26 kts 38°
2026-04-29 09:56 25.12393 102.93949 6898 ft 27 kts 38°
2026-04-29 09:56 25.12539 102.94075 6897 ft 27 kts 38°
2026-04-29 09:56 25.12675 102.94194 6896 ft 25 kts 38°
2026-04-29 09:56 25.12758 102.94265 6896 ft 22 kts 38°
2026-04-29 09:57 25.12902 102.94342 6896 ft 16 kts 332°
2026-04-29 09:57 25.12954 102.94277 6896 ft 17 kts 309°
2026-04-29 09:57 25.13027 102.94163 6894 ft 18 kts 289°
2026-04-29 09:57 25.12969 102.94083 6894 ft 15 kts 218°
2026-04-29 09:58 25.12775 102.93914 6895 ft 67 kts 218°
2026-04-29 09:58 25.12242 102.93450 6900 ft 126 kts 218°
2026-04-29 09:58 25.11420 102.92736 6905 ft 173 kts 218°
2026-04-29 09:58 25.10394 102.91844 7163 ft 195 kts 217°
2026-04-29 09:59 25.09361 102.90836 7820 ft 202 kts 226°
2026-04-29 09:59 25.08479 102.89625 8549 ft 203 kts 232°
2026-04-29 09:59 25.07622 102.88323 8934 ft 218 kts 233°
2026-04-29 09:59 25.06702 102.86897 9064 ft 237 kts 233°
2026-04-29 10:00 25.05711 102.85368 9172 ft 254 kts 233°
2026-04-29 10:00 25.04632 102.83725 9422 ft 270 kts 232°
2026-04-29 10:00 25.03515 102.82044 10075 ft 273 kts 232°
2026-04-29 10:00 25.02383 102.80355 10685 ft 275 kts 231°
2026-04-29 10:01 25.00975 102.78920 11094 ft 286 kts 206°
2026-04-29 10:01 24.98991 102.78418 11232 ft 306 kts 179°
2026-04-29 10:01 24.96814 102.78737 11358 ft 327 kts 167°
2026-04-29 10:01 24.94556 102.79452 11474 ft 348 kts 162°
2026-04-29 10:02 24.92258 102.80473 11583 ft 367 kts 148°
2026-04-29 10:02 24.90341 102.82418 11701 ft 386 kts 130°
2026-04-29 10:02 24.88735 102.84863 11830 ft 403 kts 123°
2026-04-29 10:02 24.87284 102.87556 12184 ft 412 kts 120°
2026-04-29 10:03 24.85903 102.90342 12670 ft 417 kts 119°
2026-04-29 10:03 24.84504 102.93162 13187 ft 422 kts 120°
2026-04-29 10:03 24.83092 102.96009 13679 ft 427 kts 115°
2026-04-29 10:03 24.82364 102.99184 14109 ft 433 kts 93°
2026-04-29 10:04 24.82606 103.02502 14557 ft 438 kts 76°
2026-04-29 10:04 24.83695 103.05626 14961 ft 440 kts 59°
2026-04-29 10:04 24.85564 103.08286 15373 ft 440 kts 42°
2026-04-29 10:04 24.88022 103.10274 15796 ft 440 kts 30°
2026-04-29 10:05 24.90601 103.12113 16217 ft 443 kts 32°
2026-04-29 10:05 24.93151 103.14051 16617 ft 447 kts 33°
2026-04-29 10:05 24.95689 103.16053 17014 ft 450 kts 34°
2026-04-29 10:05 24.98238 103.18081 17402 ft 453 kts 33°
2026-04-29 10:06 25.00810 103.20113 17783 ft 456 kts 33°
2026-04-29 10:06 25.03407 103.22144 18178 ft 459 kts 33°
2026-04-29 10:06 25.06030 103.24170 18513 ft 462 kts 32°
2026-04-29 10:06 25.08676 103.26195 18814 ft 464 kts 32°
2026-04-29 10:07 25.11308 103.28201 19116 ft 466 kts 32°
2026-04-29 10:07 25.13980 103.30241 19428 ft 468 kts 32°
2026-04-29 10:07 25.16663 103.32297 19734 ft 470 kts 32°
2026-04-29 10:07 25.19352 103.34363 20038 ft 472 kts 32°
2026-04-29 10:08 25.22054 103.36441 20330 ft 474 kts 32°
2026-04-29 10:08 25.24762 103.38526 20631 ft 476 kts 32°
2026-04-29 10:08 25.27484 103.40623 20914 ft 478 kts 32°
2026-04-29 10:08 25.30216 103.42731 21200 ft 480 kts 32°
2026-04-29 10:09 25.32957 103.44851 21494 ft 481 kts 32°
2026-04-29 10:09 25.35703 103.46980 21774 ft 483 kts 32°
2026-04-29 10:09 25.38457 103.49118 22034 ft 485 kts 32°
2026-04-29 10:09 25.41228 103.51267 22331 ft 487 kts 32°
2026-04-29 10:10 25.44010 103.53419 22609 ft 489 kts 32°
2026-04-29 10:10 25.46809 103.55580 22887 ft 491 kts 32°
2026-04-29 10:10 25.49611 103.57747 23166 ft 493 kts 32°
2026-04-29 10:10 25.52274 103.60176 23440 ft 499 kts 41°
2026-04-29 10:11 25.54600 103.63059 23706 ft 505 kts 50°
2026-04-29 10:11 25.56565 103.66305 23934 ft 509 kts 55°
2026-04-29 10:11 25.58477 103.69616 24142 ft 511 kts 54°
2026-04-29 10:11 25.60376 103.72896 24374 ft 512 kts 54°
2026-04-29 10:12 25.62299 103.76209 24673 ft 512 kts 54°
2026-04-29 10:12 25.64222 103.79522 24980 ft 511 kts 54°
2026-04-29 10:12 25.66147 103.82837 25290 ft 511 kts 54°
2026-04-29 10:12 25.68070 103.86147 25592 ft 511 kts 54°
2026-04-29 10:13 25.69995 103.89464 25916 ft 511 kts 54°
2026-04-29 10:13 25.71917 103.92784 26228 ft 511 kts 54°
2026-04-29 10:13 25.73835 103.96100 26545 ft 511 kts 54°
2026-04-29 10:13 25.75750 103.99415 26879 ft 511 kts 54°
2026-04-29 10:14 25.77664 104.02735 27215 ft 510 kts 54°
2026-04-29 10:14 25.79580 104.06058 27550 ft 510 kts 54°
2026-04-29 10:14 25.81496 104.09365 27874 ft 510 kts 54°
2026-04-29 10:14 25.83436 104.12675 28216 ft 510 kts 54°
2026-04-29 10:15 25.85377 104.15965 28544 ft 509 kts 54°
2026-04-29 10:15 25.87320 104.19252 28882 ft 509 kts 54°
2026-04-29 10:15 25.89265 104.22541 29213 ft 509 kts 54°
2026-04-29 10:15 25.91204 104.25832 29556 ft 509 kts 54°
2026-04-29 10:16 25.93138 104.29128 29895 ft 509 kts 54°
2026-04-29 10:16 25.95065 104.32422 30234 ft 509 kts 54°
2026-04-29 10:16 25.96990 104.35720 30518 ft 509 kts 54°
2026-04-29 10:16 25.98917 104.39027 30824 ft 508 kts 54°
2026-04-29 10:17 26.00835 104.42314 31122 ft 507 kts 53°
2026-04-29 10:17 26.02988 104.45409 31409 ft 503 kts 44°
2026-04-29 10:17 26.05487 104.48098 31699 ft 497 kts 36°
2026-04-29 10:17 26.08147 104.50552 31989 ft 497 kts 35°
2026-04-29 10:18 26.10802 104.53003 32293 ft 496 kts 35°
2026-04-29 10:18 26.13452 104.55457 32598 ft 495 kts 35°
2026-04-29 10:18 26.16098 104.57912 32915 ft 495 kts 36°
2026-04-29 10:18 26.18738 104.60369 33156 ft 495 kts 35°
2026-04-29 10:19 26.24035 104.65303 33210 ft 498 kts 35°
2026-04-29 10:19 26.29321 104.70229 33206 ft 499 kts 35°
2026-04-29 10:20 26.34637 104.75193 33200 ft 498 kts 35°
2026-04-29 10:20 26.39955 104.80159 33198 ft 499 kts 35°
2026-04-29 10:21 26.45290 104.85138 33203 ft 500 kts 35°
2026-04-29 10:21 26.50630 104.90128 33208 ft 501 kts 35°
2026-04-29 10:22 26.55971 104.95142 33209 ft 501 kts 35°
2026-04-29 10:22 26.61282 105.00192 33218 ft 504 kts 39°
2026-04-29 10:23 26.65604 105.06380 33220 ft 515 kts 58°
2026-04-29 10:23 26.68630 105.13682 33222 ft 518 kts 63°
2026-04-29 10:24 26.71588 105.21035 33233 ft 519 kts 62°
2026-04-29 10:24 26.74556 105.28407 33232 ft 519 kts 62°
2026-04-29 10:25 26.77520 105.35782 33240 ft 520 kts 63°
2026-04-29 10:25 26.80479 105.43180 33249 ft 521 kts 63°
2026-04-29 10:26 26.83434 105.50590 33257 ft 522 kts 63°
2026-04-29 10:26 26.86395 105.58017 33263 ft 522 kts 63°
2026-04-29 10:27 26.90822 105.69174 33283 ft 523 kts 63°
2026-04-29 10:28 26.93771 105.76627 33287 ft 523 kts 63°
2026-04-29 10:28 26.96725 105.84090 33289 ft 523 kts 63°
2026-04-29 10:29 26.99669 105.91549 33295 ft 523 kts 63°
2026-04-29 10:29 27.02606 105.99020 33304 ft 524 kts 63°
2026-04-29 10:30 27.05599 106.06470 33294 ft 523 kts 61°
2026-04-29 10:30 27.08905 106.13720 33301 ft 521 kts 58°
2026-04-29 10:31 27.12330 106.20883 33295 ft 521 kts 57°
2026-04-29 10:31 27.15679 106.28091 33325 ft 520 kts 57°
2026-04-29 10:32 27.18939 106.35323 33325 ft 519 kts 57°
2026-04-29 10:32 27.22170 106.42502 33329 ft 517 kts 57°
2026-04-29 10:33 27.25439 106.49704 33322 ft 517 kts 57°
2026-04-29 10:33 27.28712 106.56898 33325 ft 516 kts 57°
2026-04-29 10:34 27.31978 106.64091 33329 ft 517 kts 57°
2026-04-29 10:34 27.35226 106.71289 33326 ft 516 kts 57°
2026-04-29 10:35 27.38471 106.78502 33325 ft 516 kts 57°
2026-04-29 10:35 27.41705 106.85721 33322 ft 517 kts 57°
2026-04-29 10:36 27.44943 106.92972 33285 ft 519 kts 57°
2026-04-29 10:36 27.48167 107.00211 33277 ft 521 kts 57°
2026-04-29 10:37 27.51473 107.07549 33285 ft 522 kts 57°
2026-04-29 10:37 27.54768 107.14790 33290 ft 523 kts 57°
2026-04-29 10:38 27.58075 107.22098 33300 ft 524 kts 57°
2026-04-29 10:38 27.61376 107.29437 33302 ft 524 kts 57°
2026-04-29 10:39 27.64672 107.36773 33308 ft 524 kts 57°
2026-04-29 10:39 27.67966 107.44105 33305 ft 524 kts 57°
2026-04-29 10:40 27.71264 107.51446 33303 ft 524 kts 57°
2026-04-29 10:40 27.74550 107.58799 33309 ft 524 kts 57°
2026-04-29 10:41 27.77832 107.66156 33307 ft 524 kts 57°
2026-04-29 10:41 27.81116 107.73512 33303 ft 525 kts 57°
2026-04-29 10:42 27.84385 107.80816 33302 ft 525 kts 57°
2026-04-29 10:42 27.87723 107.88142 33303 ft 524 kts 57°
2026-04-29 10:43 27.91086 107.95463 33304 ft 525 kts 57°
2026-04-29 10:43 27.94458 108.02845 33304 ft 525 kts 57°
2026-04-29 10:44 27.97769 108.10145 33298 ft 525 kts 58°
2026-04-29 10:44 28.00557 108.16321 33292 ft 525 kts 58°
2026-04-29 10:45 28.03881 108.23699 33295 ft 526 kts 58°
2026-04-29 10:45 28.07212 108.31073 33296 ft 527 kts 58°
2026-04-29 10:46 28.10545 108.38460 33299 ft 526 kts 58°
2026-04-29 10:46 28.13855 108.45799 33238 ft 526 kts 62°
2026-04-29 10:47 28.17160 108.53170 33283 ft 525 kts 63°